Time,TemperatureF,DewpointF,PressureIn,WindDirection,WindDirectionDegrees,WindSpeedMPH,WindSpeedGustMPH,Humidity,HourlyPrecipIn,Conditions,Clouds,dailyrainin,SoftwareType,DateUTC
2013-01-21 01:00:00,20.0,-99.9,-100.00,WSW,248,1.0,-999.0,-999,-99.99,,,-99.99,,2013-01-21 08:00:00,
2013-01-21 01:53:00,20.0,-99.9,-100.00,WSW,248,1.0,-999.0,-999,-99.99,,,-99.99,,2013-01-21 08:53:00,
2013-01-21 02:00:00,20.0,-99.9,-100.00,West,270,2.0,-999.0,-999,-99.99,,,-99.99,,2013-01-21 09:00:00,
2013-01-21 02:53:00,20.0,-99.9,-100.00,West,270,2.0,-999.0,-999,-99.99,,,-99.99,,2013-01-21 09:53:00,
2013-01-21 03:00:00,17.0,-99.9,-100.00,South,181,1.0,-999.0,-999,-99.99,,,-99.99,,2013-01-21 10:00:00,
2013-01-21 03:53:00,17.0,-99.9,-100.00,South,181,1.0,-999.0,-999,-99.99,,,-99.99,,2013-01-21 10:53:00,
2013-01-21 04:00:00,17.0,-99.9,-100.00,NNE,16,2.0,-999.0,-999,-99.99,,,-99.99,,2013-01-21 11:00:00,
2013-01-21 04:53:00,17.0,-99.9,-100.00,NNE,16,2.0,-999.0,-999,-99.99,,,-99.99,,2013-01-21 11:53:00,
2013-01-21 05:00:00,15.0,-99.9,-100.00,SW,223,1.0,-999.0,-999,-99.99,,,-99.99,,2013-01-21 12:00:00,
2013-01-21 05:53:00,15.0,-99.9,-100.00,SW,223,1.0,-999.0,-999,-99.99,,,-99.99,,2013-01-21 12:53:00,
2013-01-21 06:00:00,16.0,-99.9,-100.00,SW,214,3.0,-999.0,-999,-99.99,,,-99.99,,2013-01-21 13:00:00,
2013-01-21 06:54:00,16.0,-99.9,-100.00,SW,214,3.0,-999.0,-999,-99.99,,,-99.99,,2013-01-21 13:54:00,
2013-01-21 07:00:00,17.0,-99.9,-100.00,SW,229,4.0,-999.0,-999,-99.99,,,-99.99,,2013-01-21 14:00:00,
2013-01-21 07:54:00,17.0,-99.9,-100.00,SW,229,4.0,-999.0,-999,-99.99,,,-99.99,,2013-01-21 14:54:00,
2013-01-21 08:00:00,22.0,-99.9,-100.00,SW,215,6.0,-999.0,-999,-99.99,,,-99.99,,2013-01-21 15:00:00,
2013-01-21 08:54:00,22.0,-99.9,-100.00,SW,215,6.0,-999.0,-999,-99.99,,,-99.99,,2013-01-21 15:54:00,
2013-01-21 09:00:00,30.0,-99.9,-100.00,SSW,198,5.0,-999.0,-999,-99.99,,,-99.99,,2013-01-21 16:00:00,
2013-01-21 09:53:00,30.0,-99.9,-100.00,SSW,198,5.0,-999.0,-999,-99.99,,,-99.99,,2013-01-21 16:53:00,
2013-01-21 10:00:00,37.0,-99.9,-100.00,SSW,197,9.0,-999.0,-999,-99.99,,,-99.99,,2013-01-21 17:00:00,
2013-01-21 10:53:00,37.0,-99.9,-100.00,SSW,197,9.0,-999.0,-999,-99.99,,,-99.99,,2013-01-21 17:53:00,
2013-01-21 11:00:00,45.0,-99.9,-100.00,SW,234,6.0,-999.0,-999,-99.99,,,-99.99,,2013-01-21 18:00:00,
2013-01-21 11:53:00,45.0,-99.9,-100.00,SW,234,6.0,-999.0,-999,-99.99,,,-99.99,,2013-01-21 18:53:00,
2013-01-21 12:00:00,50.0,-99.9,-100.00,ESE,107,3.0,-999.0,-999,-99.99,,,-99.99,,2013-01-21 19:00:00,
2013-01-21 12:53:00,50.0,-99.9,-100.00,ESE,107,3.0,-999.0,-999,-99.99,,,-99.99,,2013-01-21 19:53:00,
2013-01-21 13:00:00,55.0,-99.9,-100.00,ENE,57,3.0,-999.0,-999,-99.99,,,-99.99,,2013-01-21 20:00:00,
2013-01-21 13:53:00,55.0,-99.9,-100.00,ENE,57,3.0,-999.0,-999,-99.99,,,-99.99,,2013-01-21 20:53:00,
2013-01-21 14:00:00,57.0,-99.9,-100.00,ENE,70,3.0,-999.0,-999,-99.99,,,-99.99,,2013-01-21 21:00:00,
2013-01-21 14:54:00,57.0,-99.9,-100.00,ENE,70,3.0,-999.0,-999,-99.99,,,-99.99,,2013-01-21 21:54:00,
2013-01-21 15:00:00,58.0,-99.9,-100.00,West,266,6.0,-999.0,-999,-99.99,,,-99.99,,2013-01-21 22:00:00,
2013-01-21 15:53:00,58.0,-99.9,-100.00,West,266,6.0,-999.0,-999,-99.99,,,-99.99,,2013-01-21 22:53:00,
2013-01-21 16:00:00,56.0,-99.9,-100.00,WSW,253,12.0,-999.0,-999,-99.99,,,-99.99,,2013-01-21 23:00:00,
2013-01-21 16:53:00,56.0,-99.9,-100.00,WSW,253,12.0,-999.0,-999,-99.99,,,-99.99,,2013-01-21 23:53:00,
2013-01-21 17:00:00,53.0,-99.9,-100.00,WNW,291,5.0,-999.0,-999,-99.99,,,-99.99,,2013-01-22 00:00:00,
2013-01-21 17:53:00,53.0,-99.9,-100.00,WNW,291,5.0,-999.0,-999,-99.99,,,-99.99,,2013-01-22 00:53:00,
2013-01-21 18:00:00,49.0,-99.9,-100.00,West,281,8.0,-999.0,-999,-99.99,,,-99.99,,2013-01-22 01:00:00,
2013-01-21 18:53:00,49.0,-99.9,-100.00,West,281,8.0,-999.0,-999,-99.99,,,-99.99,,2013-01-22 01:53:00,
2013-01-21 19:00:00,48.0,-99.9,-100.00,West,277,7.0,-999.0,-999,-99.99,,,-99.99,,2013-01-22 02:00:00,
2013-01-21 19:53:00,48.0,-99.9,-100.00,West,277,7.0,-999.0,-999,-99.99,,,-99.99,,2013-01-22 02:53:00,
2013-01-21 20:00:00,49.0,-99.9,-100.00,WNW,300,8.0,-999.0,-999,-99.99,,,-99.99,,2013-01-22 03:00:00,
2013-01-21 20:53:00,49.0,-99.9,-100.00,WNW,300,8.0,-999.0,-999,-99.99,,,-99.99,,2013-01-22 03:53:00,
2013-01-21 21:00:00,49.0,-99.9,-100.00,West,275,10.0,-999.0,-999,-99.99,,,-99.99,,2013-01-22 04:00:00,
2013-01-21 21:53:00,49.0,-99.9,-100.00,West,275,10.0,-999.0,-999,-99.99,,,-99.99,,2013-01-22 04:53:00,
2013-01-21 22:00:00,47.0,-99.9,-100.00,SW,217,4.0,-999.0,-999,-99.99,,,-99.99,,2013-01-22 05:00:00,
2013-01-21 22:53:00,47.0,-99.9,-100.00,SW,217,4.0,-999.0,-999,-99.99,,,-99.99,,2013-01-22 05:53:00,
2013-01-21 23:00:00,44.0,-99.9,-100.00,WNW,283,3.0,-999.0,-999,-99.99,,,-99.99,,2013-01-22 06:00:00,
2013-01-21 23:53:00,44.0,-99.9,-100.00,WNW,283,3.0,-999.0,-999,-99.99,,,-99.99,,2013-01-22 06:53:00,